• In Netherlands
  • List of Countries
  • For 7 days
  • Water Temperature
  • Satellite Maps
  • Weather Map
  • Weather Widgets
  • user-avatar
    Login

    Hourly Weather Zhlobin

    Today, 30 March, Thursday

    Time Temperature Precipitation Wind Pressure Humidity
    00:00 +3°C° 0 mm 2 mps 746 mmHg 84%
    01:00 +3°C° 0 mm 2 mps 746 mmHg 82%
    02:00 +2°C° 0 mm 3 mps 747 mmHg 79%
    03:00 +1°C° 0 mm 3 mps 748 mmHg 81%
    04:00 0°C° 0 mm 3 mps 749 mmHg 82%
    05:00 -2°C° 0 mm 4 mps 750 mmHg 83%
    06:00 -1°C° 0 mm 4 mps 751 mmHg 77%
    07:00 -1°C° 0 mm 4 mps 752 mmHg 70%
    08:00 -1°C° 0 mm 4 mps 753 mmHg 60%
    09:00 0°C° 0 mm 4 mps 754 mmHg 53%
    10:00 +1°C° 0 mm 4 mps 754 mmHg 46%
    11:00 +3°C° 0 mm 4 mps 755 mmHg 39%
    12:00 +4°C° 0 mm 4 mps 756 mmHg 37%
    13:00 +4°C° 0 mm 4 mps 756 mmHg 35%
    14:00 +5°C° 0 mm 3 mps 756 mmHg 32%
    15:00 +4°C° 0 mm 3 mps 757 mmHg 34%
    16:00 +5°C° 0 mm 2 mps 757 mmHg 36%
    17:00 +5°C° 0 mm 2 mps 757 mmHg 38%
    18:00 +4°C° 0 mm 1 mps 758 mmHg 42%
    19:00 +3°C° 0 mm 1 mps 758 mmHg 47%
    20:00 +1°C° 0 mm 1 mps 758 mmHg 51%
    21:00 +1°C° 0 mm 1 mps 759 mmHg 52%
    22:00 +1°C° 0 mm 1 mps 759 mmHg 52%
    23:00 -1°C° 0 mm 2 mps 759 mmHg 53%

    Tomorrow, 31 March, Friday

    Time Temperature Precipitation Wind Pressure Humidity
    00:00 -1°C° 0 mm 2 mps 759 mmHg 55%
    01:00 -1°C° 0 mm 2 mps 759 mmHg 57%
    02:00 -1°C° 0 mm 2 mps 759 mmHg 59%
    03:00 -1°C° 0 mm 2 mps 758 mmHg 60%
    04:00 -1°C° 0 mm 3 mps 758 mmHg 61%
    05:00 -1°C° 0 mm 3 mps 757 mmHg 62%
    06:00 -1°C° 0.1 mm 4 mps 757 mmHg 62%
    07:00 0°C° 0.1 mm 5 mps 756 mmHg 62%
    08:00 +1°C° 0.1 mm 5 mps 756 mmHg 62%
    09:00 +1°C° 0.7 mm 5 mps 755 mmHg 68%
    10:00 +1°C° 0.7 mm 6 mps 754 mmHg 74%
    11:00 +1°C° 0.7 mm 6 mps 753 mmHg 80%
    12:00 +2°C° 0.8 mm 6 mps 753 mmHg 84%
    13:00 +2°C° 0.8 mm 6 mps 752 mmHg 88%
    14:00 +3°C° 0.8 mm 6 mps 751 mmHg 92%
    15:00 +3°C° 0.4 mm 5 mps 751 mmHg 93%
    16:00 +5°C° 0.4 mm 5 mps 750 mmHg 95%
    17:00 +6°C° 0.4 mm 4 mps 750 mmHg 97%
    18:00 +6°C° 0.3 mm 4 mps 750 mmHg 97%
    19:00 +6°C° 0.3 mm 4 mps 750 mmHg 98%
    20:00 +7°C° 0.3 mm 3 mps 750 mmHg 98%
    21:00 +7°C° 0.2 mm 3 mps 750 mmHg 98%
    22:00 +7°C° 0.2 mm 3 mps 751 mmHg 98%
    23:00 +7°C° 0.2 mm 2 mps 751 mmHg 99%

    Day after tomorrow, 1 April, Saturday

    Time Temperature Precipitation Wind Pressure Humidity
    00:00 +7°C° 0 mm 2 mps 751 mmHg 99%
    01:00 +7°C° 0 mm 2 mps 751 mmHg 99%
    02:00 +6°C° 0 mm 2 mps 751 mmHg 99%
    03:00 +7°C° 0 mm 1 mps 752 mmHg 99%
    04:00 +7°C° 0 mm 1 mps 752 mmHg 99%
    05:00 +7°C° 0 mm 1 mps 752 mmHg 99%
    06:00 +7°C° 0 mm 1 mps 752 mmHg 97%
    07:00 +7°C° 0 mm 0 mps 753 mmHg 95%
    08:00 +7°C° 0 mm 0 mps 753 mmHg 93%
    09:00 +8°C° 0 mm 0 mps 753 mmHg 88%
    10:00 +10°C° 0 mm 0 mps 753 mmHg 83%
    11:00 +11°C° 0 mm 0 mps 754 mmHg 78%
    12:00 +12°C° 0.1 mm 1 mps 753 mmHg 78%
    13:00 +13°C° 0.1 mm 1 mps 753 mmHg 79%
    14:00 +13°C° 0.1 mm 1 mps 753 mmHg 79%
    15:00 +13°C° 0 mm 1 mps 753 mmHg 82%
    16:00 +13°C° 0 mm 1 mps 753 mmHg 84%
    17:00 +13°C° 0 mm 1 mps 752 mmHg 87%
    18:00 +12°C° 0 mm 2 mps 752 mmHg 90%
    19:00 +10°C° 0 mm 2 mps 753 mmHg 94%
    20:00 +9°C° 0 mm 2 mps 753 mmHg 97%
    21:00 +9°C° 0.1 mm 2 mps 753 mmHg 97%
    22:00 +9°C° 0.1 mm 3 mps 752 mmHg 97%
    23:00 +8°C° 0.1 mm 3 mps 752 mmHg 98%

    2 April, Sunday

    Time Temperature Precipitation Wind Pressure Humidity
    00:00 +8°C° 0 mm 3 mps 752 mmHg 98%
    01:00 +8°C° 0 mm 2 mps 752 mmHg 98%
    02:00 +8°C° 0 mm 2 mps 752 mmHg 98%
    03:00 +8°C° 0 mm 2 mps 752 mmHg 98%
    04:00 +7°C° 0 mm 2 mps 752 mmHg 98%
    05:00 +7°C° 0 mm 2 mps 752 mmHg 98%
    06:00 +8°C° 0 mm 2 mps 752 mmHg 93%
    07:00 +9°C° 0 mm 3 mps 752 mmHg 89%
    08:00 +10°C° 0 mm 3 mps 752 mmHg 85%
    09:00 +12°C° 0 mm 3 mps 752 mmHg 80%
    10:00 +13°C° 0 mm 3 mps 752 mmHg 75%
    11:00 +16°C° 0 mm 3 mps 752 mmHg 69%
    12:00 +17°C° 0 mm 3 mps 751 mmHg 65%
    13:00 +18°C° 0 mm 3 mps 751 mmHg 60%
    14:00 +19°C° 0 mm 3 mps 751 mmHg 56%
    15:00 +18°C° 0 mm 3 mps 751 mmHg 59%
    16:00 +17°C° 0 mm 2 mps 750 mmHg 62%
    17:00 +17°C° 0 mm 2 mps 750 mmHg 66%
    18:00 +15°C° 0 mm 2 mps 750 mmHg 72%
    19:00 +14°C° 0 mm 2 mps 750 mmHg 77%
    20:00 +12°C° 0 mm 2 mps 750 mmHg 83%
    21:00 +10°C° 0 mm 2 mps 750 mmHg 85%
    22:00 +10°C° 0 mm 2 mps 750 mmHg 87%
    23:00 +9°C° 0 mm 2 mps 750 mmHg 90%

    3 April, Monday

    Time Temperature Precipitation Wind Pressure Humidity
    00:00 +9°C° 0 mm 2 mps 749 mmHg 91%
    01:00 +8°C° 0 mm 2 mps 749 mmHg 92%
    02:00 +8°C° 0 mm 2 mps 749 mmHg 92%
    03:00 +8°C° 0 mm 2 mps 749 mmHg 93%
    04:00 +7°C° 0 mm 2 mps 749 mmHg 94%
    05:00 +7°C° 0 mm 2 mps 749 mmHg 95%
    06:00 +8°C° 0 mm 2 mps 748 mmHg 89%
    07:00 +9°C° 0 mm 2 mps 748 mmHg 83%
    08:00 +12°C° 0 mm 2 mps 748 mmHg 77%
    09:00 +13°C° 0 mm 2 mps 748 mmHg 72%
    10:00 +15°C° 0 mm 2 mps 748 mmHg 66%
    11:00 +16°C° 0 mm 2 mps 749 mmHg 61%
    12:00 +18°C° 0 mm 1 mps 748 mmHg 59%
    13:00 +18°C° 0 mm 1 mps 748 mmHg 58%
    14:00 +19°C° 0 mm 1 mps 748 mmHg 56%
    15:00 +17°C° 0.2 mm 2 mps 749 mmHg 62%
    16:00 +16°C° 0.2 mm 2 mps 749 mmHg 68%
    17:00 +16°C° 0.2 mm 2 mps 749 mmHg 73%
    18:00 +13°C° 0.3 mm 3 mps 750 mmHg 79%
    19:00 +12°C° 0.3 mm 4 mps 750 mmHg 84%
    20:00 +10°C° 0.3 mm 4 mps 751 mmHg 89%
    21:00 +8°C° 0 mm 4 mps 751 mmHg 88%
    22:00 +8°C° 0 mm 5 mps 752 mmHg 88%
    23:00 +7°C° 0 mm 5 mps 752 mmHg 87%

    4 April, Tuesday

    Time Temperature Precipitation Wind Pressure Humidity
    00:00 +7°C° 0 mm 5 mps 753 mmHg 87%
    01:00 +6°C° 0 mm 5 mps 754 mmHg 86%
    02:00 +6°C° 0 mm 5 mps 754 mmHg 85%
    03:00 +5°C° 0 mm 5 mps 755 mmHg 85%
    04:00 +5°C° 0 mm 5 mps 755 mmHg 85%
    05:00 +5°C° 0 mm 5 mps 756 mmHg 85%
    06:00 +3°C° 0 mm 5 mps 756 mmHg 84%
    07:00 +3°C° 0 mm 5 mps 757 mmHg 83%
    08:00 +3°C° 0 mm 5 mps 757 mmHg 82%
    09:00 +5°C° 0 mm 5 mps 758 mmHg 79%
    10:00 +5°C° 0 mm 5 mps 758 mmHg 76%
    11:00 +6°C° 0 mm 5 mps 759 mmHg 73%
    12:00 +6°C° 0 mm 4 mps 759 mmHg 71%
    13:00 +6°C° 0 mm 4 mps 759 mmHg 69%
    14:00 +7°C° 0 mm 4 mps 759 mmHg 67%
    15:00 +7°C° 0 mm 4 mps 759 mmHg 68%
    16:00 +8°C° 0 mm 3 mps 759 mmHg 69%
    17:00 +8°C° 0 mm 3 mps 759 mmHg 70%
    18:00 +7°C° 0 mm 3 mps 760 mmHg 74%
    19:00 +5°C° 0 mm 3 mps 760 mmHg 78%
    20:00 +5°C° 0 mm 2 mps 760 mmHg 82%
    21:00 +5°C° 0 mm 2 mps 760 mmHg 84%
    22:00 +4°C° 0 mm 2 mps 760 mmHg 86%
    23:00 +3°C° 0 mm 3 mps 760 mmHg 88%
    Show more